Regional Weather Roundup
Issued by NWS Grand Forks, ND

Home | Current Version | Previous Version | Graphics & Text | Print | Product List | Glossary On
Versions: 1 2 3 4 5 6 7 8 9 10 11 12 13 14 15 16 17 18 19 20 21 22 23 24 25 26 27 28 29 30 31 32 33 34 35 36 37 38 39 40 41 42 43 44 45 46 47 48 49 50
000
ASUS43 KFGF 171710
RWRFGF
PRAIRIE TO PINES  WEATHER ROUNDUP
NATIONAL WEATHER SERVICE EASTERN NORTH DAKOTA/GRAND FORKS ND
1200 PM CDT WED SEP 17 2014

 **SATELLITE DATA USED TO AUGMENT SKY COVER AT AUTOMATED STATIONS**
 *****  WEATHER ACROSS EASTERN NORTH DAKOTA  *****

CITY           SKY/WX    TMP DP  RH WIND       PRES   REMARKS
GRAND FORKS    MOSUNNY   61  50  67 N12       30.00R
GRAND FRKS AFB CLOUDY    55  50  85 N15G21    30.02R
DEVILS LAKE    SUNNY     57  46  67 NE10      30.00S
FARGO          SUNNY     69  50  50 N7        29.96R
WAHPETON ARPT  SUNNY     66  50  55 N6        29.96S
$$

 ***** WEATHER ACROSS CENTRAL AND WESTERN NORTH DAKOTA  *****

CITY           SKY/WX    TMP DP  RH WIND       PRES   REMARKS
BISMARCK       SUNNY     68  52  56 CALM      29.99S
MINOT          SUNNY     63  47  55 NE5       30.00R
JAMESTOWN      SUNNY     67  52  58 NW6       29.98S
MINOT AFB      SUNNY     61  49  62 E6        30.00R
GARRISON         N/A     67  48  50 E7        29.99R
WILLISTON      SUNNY     68  44  42 SE5       29.96S
DICKINSON      MOSUNNY   67  43  41 E10       29.97S
HETTINGER      MOSUNNY   68  49  50 SE12      29.98S
$$

 *****  OTHER AIRPORT OBSERVATIONS IN OUR AREA  *****

CITY           SKY/WX    TMP DP  RH WIND       PRES   REMARKS
WALHALLA         N/A     46  46 100 N12       30.07S
GRAFTON AIRPOR CLOUDY    50  48  93 N10G16    30.03R
VALLEY CITY AR FAIR      66  48  52 NE5       29.98S
CANDO          FAIR      54  46  76 NE9       30.04S
CAVALIER APRT  CLOUDY    46  45  93 N9        30.06R
GWINNER        SUNNY     66  50  55 N8        29.98S
SHEYENNE NWR     N/A     67  50  54 N6        29.95
ROLLA          CLOUDY    46  46 100 NE13      30.07R
 ***** THE ABOVE OBSERVATIONS ARE NON NWS ARE NOT QUALITY
       CONTROLLED AND MAY MIS-REPORT RAIN FOR SNOW...
$$

  *****  WEATHER ACROSS NORTHERN MINNESOTA  *****

CITY           SKY/WX    TMP DP  RH WIND       PRES   REMARKS
FLAG ISLAND    CLOUDY    45  39  81 NE10G16   30.06R
WARROAD        CLOUDY    48  45  87 NE14G20   30.06R
ROSEAU         CLOUDY    54  45  71 E15       30.04R
HALLOCK        CLOUDY    55  46  71 NE10      30.03S
THF RVR FALLS  MOSUNNY   59  50  72 NE12      29.99R
BAUDETTE       PTSUNNY   53  43  68 NE9G18    30.03R
WASKISH        CLOUDY    55  48  76 N5        30.00R
CROOKSTON      SUNNY     63  48  59 NE7       29.99R
$$
  *****  WEATHER ACROSS CENTRAL AND WEST MINNESOTA  *****

CITY           SKY/WX    TMP DP  RH WIND       PRES   REMARKS
FOSSTON        SUNNY     66  48  52 N8        29.97R
BEMIDJI        SUNNY     64  47  53 CALM      29.96S
PARK RAPIDS    SUNNY     67  46  47 VRB3      29.96R
ELBOW LAKE     FAIR      67  54  64 E5        29.96R
WADENA         SUNNY     66  54  63 NE5       29.95S
DETROIT LAKES  SUNNY     66  50  55 N3        29.97S
MOORHEAD       SUNNY     68  52  56 NE5       29.97R
FERGUS FALLS   SUNNY     68  52  56 E8        29.95S
MORRIS MN      SUNNY     70  55  60 CALM      29.93F
STAPLES        SUNNY     64  52  63 NE5       29.96S
$$
  *****  WEATHER ELSEWHERE ACROSS MINNESOTA  *****

CITY           SKY/WX    TMP DP  RH WIND       PRES   REMARKS
DULUTH         MOSUNNY   68  47  46 VRB7      29.94S
INTRNTL FALLS  MOSUNNY   52  43  71 NE13      30.02R
ELY            CLOUDY    54  46  76 NE6       29.98R
CLOQUET        SUNNY     66  46  48 W3        29.94F
WHEATON        SUNNY     64  52  63 NW6       29.97S
BRAINERD       SUNNY     64  52  64 N7        29.96S
HIBBING        PTSUNNY   64  47  53 N9        29.96R
ALEXANDRIA     SUNNY     67  55  65 E5        29.96R
SAINT CLOUD    SUNNY     71  52  50 NE6       29.95S
MINNEAPOLIS    MOSUNNY   68  50  52 CALM      29.95F
$$

  *****  WEATHER ACROSS SOUTH DAKOTA  *****

CITY           SKY/WX    TMP DP  RH WIND       PRES   REMARKS
SIOUX FALLS    MOSUNNY   69  56  62 VRB6      29.94S
BROOKINGS      NOT AVBL
WATERTOWN      SUNNY     70  53  54 VRB7      29.95S
HURON          SUNNY     69  56  62 E5        29.94S
SISSETON         N/A     70  54  56 N13       29.95R
ABERDEEN       SUNNY     68  51  54 NE13      29.96S
MITCHELL       SUNNY     70  59  68 NE6       29.94S
PIERRE         SUNNY     74  53  48 E9        29.94R
MOBRIDGE       SUNNY     71  53  52 E9        29.94S
RAPID CITY     MOSUNNY   74  48  39 VRB7      29.98S
$$

  *****  SOME WEATHER IN NEARBY STATES *****

CITY           SKY/WX    TMP DP  RH WIND       PRES   REMARKS
GLASGOW MT     MOSUNNY   67  45  45 E16       29.89R
GREAT FALLS MT MOSUNNY   70  50  49 S6        29.91S
CHEYENNE WY    SUNNY     79  35  20 N7        30.14S
SCOTTSBLUFF NE SUNNY     77  47  34 W8        30.01F
OMAHA NE       MOSUNNY   72  61  68 S3        29.94S
DES MOINES IA  MOSUNNY   72  59  63 CALM      29.96F
DAVENPORT IA   CLOUDY    64  50  60 S9        30.02S
CHICAGO IL     MOSUNNY   66  44  45 SW7       30.03S
EAU CLAIRE WI  SUNNY     66  51  58 S7        29.96F
LA CROSSE WI   SUNNY     66  52  60 S8        29.99F
$$

  *****  SOME NATIONAL WEATHER *****

CITY           SKY/WX    TMP DP  RH WIND       PRES   REMARKS
LA GUARDIA NY  MOSUNNY   69  40  34 NW5       30.02F
RALEIGH NC     PTSUNNY   74  62  66 E7        29.98F
ATLANTA GA     MOSUNNY   82  63  52 W10       29.97S
NEW ORLEANS LA PTSUNNY   84  71  65 CALM      29.97F
OKLAHOMA CITY  PTSUNNY   86  67  52 SW13      29.95F
ALBUQUERQUE NM LGT RAIN  63  60  90 NW6       30.20F
SALT LAKE CITY MOSUNNY   83  44  25 SE12      29.98S
LOS ANGELES CA MOSUNNY   83  61  47 W9        29.76R
BOISE ID       CLOUDY    74  47  38 E5        29.88S
SEATTLE WA     CLOUDY    62  56  80 W5        29.80R
$$

*** WEATHER ACROSS MANITOBA...SASKATCHEWAN AND ONTARIO ***
                ***ONTARIO***

CITY           SKY/WX    TMP DP  RH WIND       PRES   REMARKS
GERALDTON      PTSUNNY   39  30  70 E6        30.07R
THUNDER BAY    CLOUDY    45  39  81 NE13      30.05S
SIOUX LOOKOUT  PTSUNNY   43  36  75 E3        30.08R
TORONTO        MOSUNNY   66  46  48 W12       29.98F
BIG TROUT LK   CLOUDY    36  21  55 NW10G20   30.12R
PICKLE LAKE    PTSUNNY   39  23  52 NW5       30.10S
DRYDEN         CLOUDY    41  36  81 NE8       30.07R
KENORA         DRIZZLE   41  37  87 NE9       30.08R
$$
                *** MANITOBA***

CITY           SKY/WX    TMP DP  RH WIND       PRES   REMARKS
BRANDON        CLOUDY    43  39  87 E15       30.11R
DAUPHIN        CLOUDY    45  37  76 SE9       30.14R
ISLAND LAKE    PTSUNNY   39  23  52 NW3       30.18F
PILOT MOUND      N/A     46  41  81 NE12        N/A
THE PAS        PTSUNNY   43  32  65 SE7       30.16F
THOMPSON       MOSUNNY   39  23  52 NE3       30.19F
WINNIPEG       NOT AVBL
CHURCHILL      CLOUDY    34  23  64 N13G20    30.15R WCI  25
GILLAM         CLOUDY    36  21  55 N14       30.19R
$$
                ***SASKATCHEWAN***

CITY           SKY/WX    TMP DP  RH WIND       PRES   REMARKS
ESTEVAN        CLOUDY    48  46  93 E12       30.03R
KINDERSLEY     MOSUNNY   57  48  72 E10       29.91S
LLOYDMINSTER   CLOUDY    48  45  87 SE16      29.88S FOG
PRINCE ALBERT  NOT AVBL
REGINA         PTSUNNY   55  48  76 E14G21    29.99S
YORKTON        NOT AVBL
N. BATTLEFORD  CLOUDY    46  43  87 SE17G23   29.97F
LA RONGE       CLOUDY    43  37  81 SE15      30.06F
SASKATOON      CLOUDY    48  45  87 SE13      29.99F
SWIFT CURRENT  SUNNY     72  45  37 S8        29.89S
$$
NOTE: THESE ARE AUTOMATED STATIONS WITH LIMITED QUALITY CONTROL
      "FAIR" INDICATES FEW OR NO CLOUDS BELOW 12,000 FEET WITH NO
      SIGNIFICANT WEATHER AND/OR OBSTRUCTIONS TO VISIBILITY.
      SKY/WX - SKY CONDITION AND SIGNIFICANT WEATHER.
      TMP - AIR TEMPERATURE.    DP   - DEWPOINT TEMPERATURE.
      RH  - RELATIVE HUMIDITY.  PRES - PRESSURE.
      HX  - HEAT INDEX.         WCI  - WIND CHILL INDEX.
$


USA.gov is the U.S. government's official web portal to all federal, state and local government web resources and services.